[[{"header":{"parameterUnit":"m.s-1","parameterCategory":2,"la1":30.2991,"la2":30.254,"lo1":-89.0895,"lo2":-89.0444,"dy":0.0017,"dx":0.0017,"nx":28,"ny":28,"refTime":"2024-05-19T09:00:00:Z","depth":"0","parameterNumber":2,"parameterNumberName":"U-component_of_CURRENTS"},"data":[0,0,0,0,0,0,0,0,0,0,0,0,0,0,0,0,0,0,0,0,0,0,0,0,0,0,0,0,0,0,0,0,0,0,0,0,0,0,0,0,0,0,0,0,0,0,0,0,0,0,0,0,0,0,0,0,0,0,0.0513,0.0512,0,0.0483,0.0483,0.0482,0.0458,0.0458,0.0458,0.0458,0.0438,0.0438,0.0438,0,0,0,0,0,0,0,0,0,0,0,0,0,0.0501,0.0501,0.0513,0.0512,0.0512,0.0483,0.0483,0.0482,0.0458,0.0458,0.0458,0.0457,0.0438,0.0438,0.0438,0,0,0,0,0,0,0,0,0,0,0,0,0,0.0491,0.0501,0.0513,0.0498,0.0496,0.0483,0.0483,0.0482,0.0458,0.0458,0.0458,0.0457,0.0439,0.0438,0.0437,0.0438,0,0,0.0436,0.0435,0,0,0,0,0,0,0,0,0.0492,0.0491,0.05,0.0499,0.0497,0.0475,0.0471,0.0468,0.0458,0.0471,0.0458,0.0457,0.0452,0.0451,0.0444,0.0437,0.0436,0.0436,0.0435,0.0435,0.0435,0,0,0,0,0,0,0,0.0492,0.0492,0.05,0.05,0.0498,0.0476,0.0475,0.047,0.0463,0.047,0.0469,0.0467,0.0451,0.0444,0.0443,0.0436,0.0436,0.0435,0.0435,0.0435,0.0448,0.0449,0,0,0,0,0,0,0.0501,0.0493,0.0501,0.0499,0.0495,0.0477,0.0475,0.0481,0.0462,0.046,0.0467,0.0466,0.0445,0.0444,0.0442,0.0463,0.0435,0.0435,0.0434,0.0447,0.0448,0.0449,0,0,0,0,0,0,0.0501,0.0503,0.0502,0.0496,0.0494,0.0477,0.0484,0.0481,0.0477,0.0461,0.0458,0.0467,0.0445,0.0443,0.0442,0.0461,0.0434,0.0434,0.0446,0.0448,0.0449,0.049,0,0,0,0,0,0,0.0501,0.0503,0.0511,0.0497,0.0495,0.0503,0.0485,0.048,0.0477,0.0475,0.046,0.0457,0.0445,0.0443,0.0441,0.046,0.0433,0.0446,0.0447,0.0448,0.0488,0.0492,0.0496,0,0,0,0,0,0.0501,0.0517,0.0512,0.0512,0.0507,0.0504,0.0501,0.0487,0.0477,0.0481,0.0467,0.0458,0.045,0.0443,0.0441,0.046,0.0445,0.0447,0.0448,0.0486,0.0492,0.0496,0,0,0,0,0,0,0.0515,0.0516,0.0509,0.0525,0.0518,0.05,0.0506,0.0491,0.0483,0.0484,0.0462,0.0459,0.0466,0.0457,0.0449,0.0468,0.0448,0.0449,0.0478,0.0483,0.0487,0.0498,0.0433,0,0,0,0,0,0.0522,0.0533,0.0527,0.0536,0.0541,0.0523,0.052,0.0511,0.05,0.0496,0.0481,0.0473,0.0471,0.0471,0.0465,0.0475,0.0481,0.0487,0.0491,0.0495,0.0503,0.0528,0.0535,0.0454,0.0454,0.0454,0,0,0.053,0.053,0.0537,0.054,0.0536,0.0548,0.0521,0.0526,0.0527,0.0497,0.0497,0.0485,0.0475,0.0484,0.0488,0.048,0.0523,0.0497,0.05,0.0507,0.053,0.0538,0.0545,0.0455,0.0455,0.0455,0,0,0.0559,0.0555,0.0582,0.0578,0.0579,0.0568,0.0572,0.056,0.055,0.0546,0.0529,0.053,0.0517,0.052,0.0518,0.0545,0.0542,0.0542,0.0576,0.06,0.0607,0.0613,0.0639,0.0647,0.0547,0.0547,0.0547,0,0.0576,0.0602,0.0586,0.0607,0.0612,0.0582,0.0609,0.0592,0.0575,0.0575,0.0554,0.055,0.0538,0.0561,0.0565,0.0556,0.0567,0.0557,0.0606,0.0613,0.0618,0.0643,0.0652,0.0549,0.0549,0.0549,0.0549,0,0.0631,0.0643,0.0659,0.0676,0.0673,0.0691,0.067,0.0666,0.0646,0.0627,0.0634,0.0613,0.0616,0.0611,0.0592,0.063,0.0624,0.0607,0.0595,0.0629,0.0653,0.0661,0.0553,0.0552,0.0551,0.0551,0,0,0.0744,0.0704,0.0722,0.0724,0.0715,0.0723,0.0724,0.0728,0.0741,0.0707,0.0728,0.0708,0.0693,0.0691,0.0674,0.0685,0.073,0.0664,0.0664,0.0693,0.0789,0.0877,0.0894,0.0721,0.0722,0.0724,0.0792,0,0.0815,0.0838,0.0808,0.0841,0.0861,0.082,0.0825,0.0812,0.0793,0.0799,0.0769,0.0779,0.0724,0.0737,0.0737,0.0732,0.0753,0.0714,0.0748,0.075,0.0827,0.0907,0.1056,0.1138,0.08,0.0801,0.0802,0,0.0936,0.0922,0.095,0.092,0.0931,0.0937,0.0952,0.0947,0.093,0.0918,0.0908,0.0876,0.0882,0.0834,0.0843,0.0819,0.0813,0.0802,0.0804,0.088,0.0855,0.1047,0.1165,0.1112,0.0815,0.0814,0.0813,0,0.1062,0.1049,0.1062,0.1057,0.1014,0.1025,0.1012,0.0997,0.1003,0.1002,0.1019,0.0992,0.1008,0.0978,0.0941,0.0899,0.096,0.0902,0.0977,0.0982,0.1114,0.113,0.1192,0.0929,0.0929,0.0929,0.0929,0,0.1182,0.1209,0.1117,0.1133,0.1158,0.1109,0.1145,0.1129,0.1125,0.1152,0.1094,0.1133,0.1046,0.1053,0.0996,0.1034,0.101,0.1014,0.1021,0.1134,0.1149,0.1111,0.1017,0.0932,0.0931,0.0931,0.093,0,0.1333,0.1276,0.1287,0.1228,0.1218,0.124,0.121,0.1234,0.1228,0.127,0.1277,0.1259,0.1287,0.1216,0.1194,0.1146,0.1129,0.1163,0.1304,0.1327,0.134,0.1242,0.1207,0.1152,0.126,0.1263,0.1265,0,0.1412,0.1426,0.1358,0.1357,0.1332,0.1335,0.134,0.1302,0.1319,0.1358,0.1393,0.1435,0.1486,0.1497,0.1458,0.1431,0.1268,0.1507,0.1456,0.14,0.1294,0.1131,0.1072,0.1641,0.1646,0.165,0.1654,0,0.1562,0.1524,0.151,0.1478,0.1475,0.1457,0.1454,0.1477,0.1456,0.151,0.1598,0.1654,0.1717,0.178,0.1748,0.1723,0.1468,0.1596,0.1512,0.1595,0.1448,0.1381,0.1512,0.1692,0.1688,0.1686,0.1684,0.1682,0.1688,0.1679,0.1635,0.1605,0.1589,0.1574,0.1575,0.1591,0.1642,0.1703,0.1766,0.1886,0.198,0.1999,0.1942,0.1949,0.1742,0.1896,0.1781,0.1619,0.1576,0.1798,0.1994,0.1993,0.1991,0.1989,0.1988,0,0.1827,0.1779,0.1759,0.1703,0.168,0.1644,0.1643,0.1644,0.1713,0.1825,0.1927,0.2125,0.222,0.2211,0.2244,0.2145,0.1993,0.2041,0.1852,0.1778,0.201,0.2042,0.2293,0.2293,0.2293,0.2293,0.2293,0.2293,0.192,0.1905,0.1837,0.1798,0.1751,0.1719,0.1714,0.1735,0.1797,0.1939,0.2067,0.2145,0.2212,0.2283,0.2235,0.2188,0.1898,0.19,0.167,0.1867,0.1843,0.182,0.1833,0.2035,0.2035,0.15,0.1496,0.1492]},{"header":{"parameterUnit":"m.s-1","parameterCategory":2,"la1":30.2991,"la2":30.254,"lo1":-89.0895,"lo2":-89.0444,"dy":0.0017,"dx":0.0017,"nx":28,"ny":28,"refTime":"2024-05-19T09:00:00:Z","depth":"0","parameterNumber":3,"parameterNumberName":"V-component_of_CURRENTS"},"data":[0,0,0,0,0,0,0,0,0,0,0,0,0,0,0,0,0,0,0,0,0,0,0,0,0,0,0,0,0,0,0,0,0,0,0,0,0,0,0,0,0,0,0,0,0,0,0,0,0,0,0,0,0,0,0,0,0,0,-0.0623,-0.0623,0,-0.0704,-0.0705,-0.0706,-0.0761,-0.0761,-0.0762,-0.0762,-0.0871,-0.0873,-0.0876,0,0,0,0,0,0,0,0,0,0,0,0,0,-0.0567,-0.0568,-0.0622,-0.0623,-0.0624,-0.0704,-0.0705,-0.0706,-0.0761,-0.0761,-0.0762,-0.0762,-0.087,-0.0873,-0.0876,0,0,0,0,0,0,0,0,0,0,0,0,0,-0.0615,-0.0568,-0.0622,-0.0661,-0.0665,-0.0704,-0.0705,-0.0707,-0.0761,-0.0761,-0.0762,-0.0762,-0.0869,-0.0872,-0.0876,-0.0891,0,0,-0.0888,-0.089,0,0,0,0,0,0,0,0,-0.0612,-0.0617,-0.0654,-0.0658,-0.0663,-0.0722,-0.0726,-0.0769,-0.0761,-0.0725,-0.0762,-0.0762,-0.0823,-0.083,-0.0845,-0.0896,-0.0901,-0.0889,-0.0891,-0.0893,-0.0894,0,0,0,0,0,0,0,-0.0609,-0.0614,-0.0656,-0.0655,-0.066,-0.0692,-0.0699,-0.0734,-0.0771,-0.0728,-0.0732,-0.074,-0.0825,-0.0841,-0.0848,-0.0902,-0.0888,-0.0892,-0.0894,-0.0896,-0.1016,-0.1017,0,0,0,0,0,0,-0.0594,-0.0611,-0.0653,-0.0658,-0.0637,-0.0692,-0.07,-0.0703,-0.0771,-0.0781,-0.074,-0.0742,-0.0834,-0.0844,-0.0852,-0.0896,-0.0893,-0.0896,-0.0898,-0.1015,-0.1016,-0.1017,0,0,0,0,0,0,-0.0592,-0.0597,-0.065,-0.0636,-0.0645,-0.0692,-0.0696,-0.0705,-0.0722,-0.0779,-0.079,-0.0748,-0.0835,-0.0847,-0.0894,-0.09,-0.0898,-0.0902,-0.1014,-0.1016,-0.1017,-0.097,0,0,0,0,0,0,-0.059,-0.0595,-0.0589,-0.0635,-0.0645,-0.0664,-0.0696,-0.0706,-0.0726,-0.073,-0.0789,-0.08,-0.0836,-0.0888,-0.0898,-0.0906,-0.0905,-0.1013,-0.1015,-0.1017,-0.097,-0.097,-0.0969,0,0,0,0,0,-0.0588,-0.0563,-0.0588,-0.0593,-0.0635,-0.0664,-0.0672,-0.0708,-0.0725,-0.0727,-0.0779,-0.0798,-0.0905,-0.0892,-0.0903,-0.0912,-0.1013,-0.1015,-0.1016,-0.0971,-0.097,-0.0969,0,0,0,0,0,0,-0.052,-0.0568,-0.0596,-0.0583,-0.0623,-0.0673,-0.067,-0.0703,-0.0745,-0.075,-0.0807,-0.0822,-0.0863,-0.0898,-0.0881,-0.0954,-0.0963,-0.0967,-0.0924,-0.0924,-0.0923,-0.0891,-0.0908,0,0,0,0,0,-0.0507,-0.0505,-0.0563,-0.055,-0.0569,-0.0623,-0.0638,-0.0668,-0.0712,-0.073,-0.0777,-0.0831,-0.088,-0.0908,-0.095,-0.0989,-0.1003,-0.1005,-0.1004,-0.1003,-0.0986,-0.1024,-0.1024,-0.1024,-0.1024,-0.1024,0,0,-0.0469,-0.0499,-0.0494,-0.0537,-0.0569,-0.0588,-0.0633,-0.0649,-0.0671,-0.0735,-0.0771,-0.0822,-0.0889,-0.0934,-0.0956,-0.0964,-0.101,-0.1005,-0.1003,-0.0987,-0.1025,-0.1025,-0.1025,-0.1025,-0.1025,-0.1025,0,0,-0.0394,-0.0431,-0.0409,-0.045,-0.05,-0.0546,-0.055,-0.0609,-0.0643,-0.0688,-0.0744,-0.0797,-0.0869,-0.0921,-0.0957,-0.0976,-0.0999,-0.0997,-0.0971,-0.1008,-0.1008,-0.1008,-0.1016,-0.1017,-0.1002,-0.1002,-0.1002,0,-0.0342,-0.0339,-0.0404,-0.0411,-0.0434,-0.0524,-0.0519,-0.0572,-0.064,-0.0668,-0.0691,-0.0808,-0.0861,-0.0927,-0.094,-0.0971,-0.0987,-0.0967,-0.1004,-0.1004,-0.1005,-0.1014,-0.1015,-0.1,-0.1,-0.1001,-0.1001,0,-0.0265,-0.0276,-0.0267,-0.0315,-0.0353,-0.0359,-0.0453,-0.0496,-0.0553,-0.061,-0.0681,-0.0763,-0.0832,-0.0868,-0.0911,-0.0953,-0.096,-0.0991,-0.0998,-0.1001,-0.1011,-0.1014,-0.0997,-0.0998,-0.0999,-0.0999,0,0,-0.0099,-0.0191,-0.0186,-0.0206,-0.0305,-0.032,-0.0381,-0.0451,-0.0479,-0.0571,-0.0605,-0.0714,-0.0765,-0.0809,-0.0879,-0.0921,-0.0943,-0.0954,-0.0957,-0.0945,-0.1003,-0.0975,-0.0975,-0.0982,-0.0982,-0.0982,-0.1003,0,-0.001,-0.0003,-0.0079,-0.008,-0.0091,-0.0214,-0.0258,-0.0346,-0.0432,-0.0494,-0.061,-0.0665,-0.0745,-0.0773,-0.0834,-0.092,-0.0949,-0.0932,-0.1016,-0.1017,-0.0979,-0.0977,-0.0827,-0.083,-0.1006,-0.1006,-0.1007,0,0.0099,0.008,0.0096,0.0016,0.0004,-0.0015,-0.0108,-0.0158,-0.0298,-0.0363,-0.0466,-0.0564,-0.0666,-0.0716,-0.0858,-0.0845,-0.0908,-0.0969,-0.0972,-0.096,-0.0994,-0.086,-0.0828,-0.0871,-0.101,-0.101,-0.101,0,0.0247,0.0207,0.0223,0.0196,0.0092,0.008,0.0028,-0.0103,-0.014,-0.0273,-0.0307,-0.0468,-0.0524,-0.0651,-0.081,-0.0829,-0.0941,-0.0985,-0.1013,-0.1011,-0.0904,-0.0892,-0.0904,-0.1046,-0.1046,-0.1046,-0.1046,0,0.0363,0.038,0.0298,0.0305,0.0327,0.0212,0.021,0.0123,0.0019,-0.0007,-0.0211,-0.0252,-0.0507,-0.0628,-0.077,-0.0897,-0.0913,-0.0992,-0.1015,-0.0884,-0.087,-0.0921,-0.0997,-0.1047,-0.1047,-0.1047,-0.1047,0,0.0505,0.0455,0.047,0.0402,0.0393,0.041,0.0341,0.0325,0.0215,0.0178,0.0146,-0.0079,-0.0244,-0.0485,-0.0688,-0.0815,-0.0963,-0.0985,-0.0805,-0.0806,-0.0878,-0.0957,-0.1002,-0.1048,-0.1015,-0.1015,-0.1014,0,0.0565,0.0589,0.0565,0.058,0.0557,0.0557,0.0548,0.0444,0.0417,0.0297,0.0293,0.0115,0.0013,-0.0297,-0.0566,-0.0798,-0.0906,-0.0806,-0.0822,-0.0845,-0.0952,-0.0992,-0.1031,-0.0657,-0.0654,-0.0651,-0.0649,0,0.0666,0.0664,0.0669,0.0706,0.0723,0.0737,0.0719,0.0738,0.0621,0.0608,0.0567,0.0497,0.018,0.0002,-0.0351,-0.0534,-0.0798,-0.0757,-0.0825,-0.0703,-0.0702,-0.0767,-0.0677,-0.0625,-0.0627,-0.0629,-0.063,-0.0631,0.0727,0.0758,0.076,0.0799,0.0843,0.0888,0.0908,0.0912,0.0938,0.0923,0.0854,0.0858,0.0587,0.0117,-0.019,-0.0541,-0.0645,-0.0581,-0.0682,-0.0725,-0.0745,-0.0594,-0.0554,-0.0555,-0.0557,-0.0559,-0.056,0,0.0734,0.0769,0.0831,0.0871,0.094,0.094,0.0984,0.1008,0.1081,0.1179,0.1198,0.1253,0.0918,0.0485,-0.0025,-0.0345,-0.0504,-0.0518,-0.0519,-0.0578,-0.0446,-0.0403,-0.0272,-0.0272,-0.0272,-0.0272,-0.0272,-0.0272,0.0726,0.0768,0.0802,0.0915,0.097,0.1041,0.1076,0.1164,0.1257,0.1473,0.1641,0.1707,0.1531,0.0614,-0.0056,-0.0279,-0.0525,-0.0538,-0.0748,-0.0618,-0.063,-0.0642,-0.0616,-0.0532,-0.0533,-0.075,-0.0753,-0.0755]}],[{"header":{"parameterUnit":"m.s-1","parameterCategory":2,"la1":30.2991,"la2":30.254,"lo1":-89.0895,"lo2":-89.0444,"dy":0.0017,"dx":0.0017,"nx":28,"ny":28,"refTime":"2024-05-19T09:00:00:Z","depth":"2","parameterNumber":2,"parameterNumberName":"U-component_of_CURRENTS"},"data":[0,0,0,0,0,0,0,0,0,0,0,0,0,0,0,0,0,0,0,0,0,0,0,0,0,0,0,0,0,0,0,0,0,0,0,0,0,0,0,0,0,0,0,0,0,0,0,0,0,0,0,0,0,0,0,0,0,0,0.1792,0.1793,0,0.1888,0.1889,0.1889,0.1905,0.1905,0.1904,0.1904,0.193,0.1931,0.1932,0,0,0,0,0,0,0,0,0,0,0,0,0,0.1636,0.1638,0.1792,0.1793,0.1795,0.1888,0.1889,0.189,0.1905,0.1905,0.1904,0.1903,0.193,0.1931,0.1932,0,0,0,0,0,0,0,0,0,0,0,0,0,0.1712,0.1639,0.1791,0.1816,0.1819,0.1887,0.1889,0.189,0.1905,0.1905,0.1904,0.1903,0.1929,0.1931,0.1933,0.196,0,0,0.1938,0.1939,0,0,0,0,0,0,0,0,0.1707,0.1717,0.1811,0.1814,0.1818,0.1886,0.1844,0.1911,0.1906,0.1869,0.1904,0.1903,0.1912,0.1915,0.1931,0.1961,0.1963,0.1938,0.1939,0.194,0.1941,0,0,0,0,0,0,0,0.1702,0.1713,0.1827,0.1813,0.1817,0.1827,0.1837,0.1857,0.189,0.1873,0.1875,0.1891,0.1913,0.1929,0.1932,0.1963,0.1938,0.194,0.1941,0.1942,0.2013,0.2014,0,0,0,0,0,0,0.1697,0.1708,0.1824,0.183,0.1763,0.1831,0.1841,0.1863,0.1892,0.1897,0.1891,0.1891,0.1927,0.193,0.1933,0.1956,0.194,0.1942,0.1943,0.2012,0.2013,0.2014,0,0,0,0,0,0,0.1694,0.1707,0.182,0.1773,0.1788,0.1835,0.1859,0.1865,0.1872,0.1907,0.191,0.1891,0.1926,0.193,0.1953,0.1958,0.1943,0.1944,0.2011,0.2012,0.2013,0.201,0,0,0,0,0,0,0.1689,0.1705,0.17,0.1773,0.1791,0.1848,0.186,0.1868,0.1886,0.1886,0.1908,0.191,0.1926,0.1951,0.1955,0.196,0.1946,0.201,0.2012,0.2013,0.2009,0.2011,0.2013,0,0,0,0,0,0.1683,0.1673,0.1699,0.1712,0.1789,0.1849,0.1858,0.1886,0.1886,0.1888,0.1913,0.1909,0.1963,0.1953,0.1958,0.1963,0.2009,0.2011,0.2013,0.2008,0.2011,0.2013,0,0,0,0,0,0,0.1578,0.1677,0.1706,0.1721,0.1779,0.1852,0.1848,0.188,0.1903,0.1893,0.1923,0.1928,0.1956,0.196,0.1948,0.199,0.1984,0.1987,0.1979,0.1981,0.1983,0.1982,0.1947,0,0,0,0,0,0.1563,0.1591,0.1685,0.169,0.172,0.1785,0.1805,0.1836,0.1877,0.1885,0.1906,0.193,0.1971,0.1974,0.2005,0.202,0.2037,0.2027,0.2028,0.2029,0.2033,0.208,0.2086,0.202,0.202,0.202,0,0,0.1519,0.1578,0.1589,0.1672,0.1714,0.1762,0.1793,0.1823,0.186,0.1884,0.1909,0.194,0.1981,0.2011,0.2021,0.2008,0.2055,0.2032,0.2033,0.2036,0.2083,0.2089,0.2095,0.2021,0.2021,0.2021,0,0,0.1472,0.1506,0.1532,0.1584,0.1662,0.1715,0.1724,0.18,0.1824,0.1869,0.1904,0.194,0.1976,0.2018,0.2044,0.2072,0.2074,0.2069,0.2062,0.2108,0.2114,0.2119,0.2134,0.2141,0.2056,0.2056,0.2056,0,0.1418,0.1475,0.1539,0.1585,0.1624,0.1695,0.1734,0.1779,0.1847,0.1876,0.1868,0.1965,0.1988,0.2059,0.2066,0.2076,0.2088,0.205,0.211,0.2116,0.2121,0.2136,0.2143,0.2056,0.2056,0.2056,0.2056,0,0.1424,0.1456,0.1467,0.1565,0.1606,0.1643,0.1733,0.1769,0.1805,0.1858,0.1924,0.1971,0.2026,0.204,0.206,0.2115,0.2106,0.2117,0.2102,0.2128,0.2141,0.2149,0.2056,0.2056,0.2056,0.2056,0,0,0.1366,0.1457,0.1466,0.1503,0.1603,0.1644,0.1703,0.1795,0.1841,0.1889,0.1953,0.2018,0.2036,0.2068,0.21,0.2131,0.2174,0.2127,0.213,0.2137,0.225,0.2255,0.2263,0.219,0.2192,0.2194,0.2238,0,0.1365,0.1424,0.1483,0.1535,0.1577,0.1656,0.1712,0.179,0.1854,0.1926,0.199,0.2051,0.2051,0.2075,0.2111,0.2179,0.2197,0.216,0.2229,0.2231,0.2228,0.2274,0.1978,0.1994,0.2246,0.2247,0.2248,0,0.1383,0.1424,0.1464,0.1544,0.157,0.1606,0.1712,0.177,0.1885,0.1934,0.2001,0.2055,0.213,0.2118,0.2218,0.219,0.2211,0.2245,0.2248,0.2261,0.2252,0.2014,0.1999,0.2261,0.226,0.2259,0.2258,0,0.1341,0.142,0.1445,0.1473,0.157,0.1598,0.1651,0.1758,0.1816,0.1931,0.1976,0.2078,0.212,0.2187,0.225,0.2234,0.2352,0.2343,0.2361,0.236,0.2128,0.2105,0.2396,0.2396,0.2395,0.2395,0.2395,0,0.1336,0.1362,0.142,0.1436,0.1479,0.1551,0.1609,0.1686,0.1791,0.1864,0.1956,0.2032,0.2135,0.2218,0.2269,0.2347,0.2364,0.2374,0.2385,0.2118,0.2095,0.2345,0.2338,0.2397,0.2397,0.2396,0.2396,0,0.1289,0.1327,0.1361,0.1433,0.1454,0.1476,0.1566,0.162,0.1712,0.1813,0.1845,0.1995,0.2117,0.2216,0.2335,0.2359,0.2446,0.2454,0.2127,0.2102,0.2411,0.2403,0.249,0.2491,0.2492,0.2492,0.2493,0,0.1273,0.1278,0.1332,0.1349,0.1375,0.142,0.1463,0.1566,0.163,0.1798,0.185,0.1987,0.2082,0.2259,0.2292,0.2374,0.2474,0.2199,0.2138,0.2425,0.2427,0.2418,0.2411,0.1804,0.1799,0.1795,0.1791,0,0.1242,0.1248,0.1273,0.1303,0.1332,0.138,0.1444,0.1488,0.1625,0.1715,0.1856,0.1933,0.2034,0.2007,0.2107,0.2127,0.2174,0.2123,0.2495,0.1858,0.1791,0.1789,0.1801,0.1754,0.1757,0.176,0.1762,0.1764,0.1214,0.1215,0.1242,0.1275,0.1305,0.1356,0.1395,0.1475,0.1574,0.1649,0.1752,0.1759,0.1776,0.1786,0.18,0.182,0.1985,0.1922,0.1928,0.1941,0.1886,0.1827,0.1783,0.1787,0.179,0.1793,0.1796,0,0.1198,0.1208,0.1227,0.127,0.1302,0.1329,0.1407,0.1407,0.1506,0.15,0.1538,0.1369,0.1347,0.1421,0.1344,0.1415,0.1324,0.1423,0.1252,0.1289,0.1322,0.1231,0.0957,0.0956,0.0954,0.0953,0,0,0.1191,0.1201,0.1216,0.1269,0.1301,0.1341,0.1384,0.1327,0.1304,0.1213,0.1148,0.1142,0.1267,0.1047,0.1059,0.0996,0.1127,0.0953,0.1604,0.1427,0.1458,0.1576,0.1475,0,0,0,0,0]},{"header":{"parameterUnit":"m.s-1","parameterCategory":2,"la1":30.2991,"la2":30.254,"lo1":-89.0895,"lo2":-89.0444,"dy":0.0017,"dx":0.0017,"nx":28,"ny":28,"refTime":"2024-05-19T09:00:00:Z","depth":"2","parameterNumber":3,"parameterNumberName":"V-component_of_CURRENTS"},"data":[0,0,0,0,0,0,0,0,0,0,0,0,0,0,0,0,0,0,0,0,0,0,0,0,0,0,0,0,0,0,0,0,0,0,0,0,0,0,0,0,0,0,0,0,0,0,0,0,0,0,0,0,0,0,0,0,0,0,0.0692,0.0691,0,0.0628,0.0627,0.0627,0.0571,0.057,0.057,0.0569,0.049,0.0489,0.0487,0,0,0,0,0,0,0,0,0,0,0,0,0,0.0702,0.0702,0.0692,0.0691,0.069,0.0628,0.0627,0.0626,0.0571,0.057,0.057,0.0569,0.0491,0.0489,0.0487,0,0,0,0,0,0,0,0,0,0,0,0,0,0.0673,0.0703,0.0692,0.0656,0.0652,0.0628,0.0627,0.0626,0.0571,0.057,0.0569,0.0569,0.0492,0.0489,0.0487,0.0489,0,0,0.048,0.0479,0,0,0,0,0,0,0,0,0.0675,0.0673,0.0662,0.0659,0.0654,0.0607,0.0602,0.058,0.0571,0.0601,0.0569,0.0568,0.053,0.0524,0.0513,0.0485,0.0481,0.0479,0.0478,0.0477,0.0476,0,0,0,0,0,0,0,0.0677,0.0675,0.0666,0.0661,0.0657,0.0621,0.0617,0.0597,0.0569,0.0598,0.0594,0.0589,0.0527,0.0515,0.051,0.048,0.048,0.0477,0.0476,0.0475,0.0392,0.0392,0,0,0,0,0,0,0.0691,0.0677,0.0668,0.0664,0.0664,0.0622,0.0617,0.0622,0.057,0.0561,0.059,0.0587,0.0519,0.0513,0.0507,0.048,0.0477,0.0475,0.0473,0.0393,0.0392,0.0391,0,0,0,0,0,0,0.0692,0.0692,0.067,0.0669,0.0664,0.0624,0.063,0.0622,0.0603,0.0564,0.0555,0.0578,0.0519,0.0511,0.0487,0.0478,0.0474,0.0472,0.0394,0.0393,0.0392,0.0443,0,0,0,0,0,0,0.0693,0.0693,0.0698,0.0671,0.0665,0.0658,0.063,0.0621,0.0602,0.0597,0.0551,0.0543,0.0517,0.0491,0.0485,0.0475,0.047,0.0395,0.0393,0.0392,0.0443,0.0444,0.0445,0,0,0,0,0,0.0694,0.0705,0.0699,0.0698,0.0675,0.0659,0.0652,0.0619,0.0602,0.0598,0.0566,0.0544,0.0476,0.049,0.0482,0.0471,0.0396,0.0394,0.0392,0.0442,0.0444,0.0445,0,0,0,0,0,0,0.0703,0.07,0.0693,0.07,0.0683,0.065,0.0641,0.0621,0.0593,0.0585,0.0547,0.0538,0.0512,0.0483,0.0498,0.0439,0.0427,0.0424,0.0467,0.0469,0.047,0.0485,0.0468,0,0,0,0,0,0.0712,0.0724,0.0708,0.0711,0.0706,0.0674,0.0662,0.0642,0.0615,0.0601,0.0567,0.0528,0.05,0.048,0.0452,0.0428,0.0399,0.0409,0.041,0.0412,0.0416,0.0368,0.0366,0.0386,0.0386,0.0386,0,0,0.071,0.0715,0.0716,0.0715,0.0696,0.0693,0.0664,0.0648,0.0642,0.0598,0.0573,0.0539,0.0497,0.0469,0.0452,0.0442,0.0391,0.041,0.0412,0.0415,0.0366,0.0365,0.0363,0.0384,0.0385,0.0385,0,0,0.0716,0.0722,0.0731,0.0728,0.0714,0.0701,0.07,0.0668,0.0651,0.063,0.0593,0.0557,0.051,0.0477,0.0456,0.0447,0.0406,0.0425,0.044,0.0393,0.0392,0.039,0.0357,0.0351,0.0418,0.0419,0.0419,0,0.0704,0.0729,0.0727,0.0736,0.0734,0.0709,0.0712,0.0697,0.0659,0.0648,0.0627,0.0553,0.0516,0.0483,0.0472,0.0452,0.042,0.0443,0.0397,0.0395,0.0392,0.0358,0.0352,0.0421,0.0421,0.042,0.042,0,0.0721,0.0736,0.074,0.0752,0.0751,0.0748,0.0737,0.0726,0.0702,0.068,0.0643,0.0591,0.0542,0.0519,0.0492,0.0451,0.0433,0.0414,0.0401,0.0394,0.0358,0.0351,0.0424,0.0423,0.0423,0.0422,0,0,0.0686,0.074,0.0739,0.0755,0.0761,0.0761,0.0764,0.0756,0.0756,0.0708,0.0696,0.0631,0.0593,0.0564,0.0518,0.0472,0.0425,0.0433,0.0429,0.0414,0.0325,0.0352,0.0346,0.0394,0.0393,0.0392,0.031,0,0.0686,0.073,0.0751,0.0772,0.0788,0.0787,0.0795,0.0787,0.0771,0.0756,0.0698,0.0665,0.0613,0.0583,0.0531,0.0457,0.0406,0.0449,0.0321,0.0318,0.0354,0.0339,0.0316,0.0244,0.0303,0.0301,0.03,0,0.0685,0.0721,0.0758,0.0802,0.0806,0.0812,0.0829,0.0831,0.0817,0.0802,0.076,0.0718,0.0648,0.0604,0.0472,0.05,0.0413,0.0353,0.0348,0.0351,0.0331,0.0256,0.0228,0.0288,0.0289,0.029,0.0291,0,0.0675,0.0719,0.0759,0.0771,0.0814,0.0822,0.0831,0.0835,0.0846,0.0822,0.0819,0.0743,0.0695,0.0586,0.0459,0.0456,0.0322,0.0301,0.0245,0.0246,0.0191,0.019,0.02,0.02,0.0201,0.0201,0.0201,0,0.0674,0.0696,0.0756,0.0776,0.0809,0.0826,0.0852,0.0856,0.0865,0.0886,0.083,0.0832,0.0683,0.0596,0.0477,0.0348,0.0328,0.0249,0.0225,0.0209,0.0211,0.022,0.0224,0.0198,0.0198,0.0199,0.02,0,0.0653,0.0698,0.0743,0.0796,0.081,0.0827,0.0871,0.0894,0.0895,0.092,0.091,0.0875,0.0779,0.0637,0.0468,0.0374,0.0246,0.0198,0.0203,0.0182,0.0196,0.0203,0.0134,0.0135,0.0135,0.0135,0.0135,0,0.0645,0.0672,0.0754,0.0784,0.0805,0.0839,0.0872,0.09,0.0933,0.096,0.0977,0.0907,0.0896,0.068,0.0488,0.0297,0.0256,0.0144,0.0138,0.0206,0.0189,0.0195,0.0201,0.0075,0.0075,0.0075,0.0074,0,0.0624,0.0663,0.0712,0.0782,0.0825,0.0879,0.0924,0.0963,0.1005,0.1054,0.1108,0.1109,0.0924,0.0739,0.0478,0.0347,0.0181,0.0136,0.0175,0.0119,0.015,0.0134,0.0141,0.0072,0.0072,0.0072,0.0072,0.0072,0.0605,0.0638,0.0716,0.0776,0.0834,0.0907,0.0972,0.1049,0.1137,0.121,0.1181,0.116,0.095,0.0624,0.0407,0.0173,0.0213,0.0093,0.0093,0.0093,0.0124,0.0156,0.0085,0.0086,0.0086,0.0086,0.0086,0,0.0587,0.0642,0.0703,0.0794,0.0866,0.0896,0.1009,0.1118,0.1265,0.1257,0.1297,0.1038,0.0827,0.0586,0.025,0.0081,0.0048,-0.0002,-0.0026,-0.0021,-0.0017,0.0007,-0.0064,-0.0065,-0.0066,-0.0067,0,0,0.0583,0.0647,0.0693,0.0804,0.0869,0.1003,0.1086,0.1269,0.1329,0.135,0.1266,0.1146,0.0869,0.0568,0.0318,0.0126,0.0096,0.0087,0.0228,0.0235,0.0241,0.0059,0.0106,0,0,0,0,0]}],[{"header":{"parameterUnit":"m.s-1","parameterCategory":2,"la1":30.2991,"la2":30.254,"lo1":-89.0895,"lo2":-89.0444,"dy":0.0017,"dx":0.0017,"nx":28,"ny":28,"refTime":"2024-05-19T09:00:00:Z","depth":"4","parameterNumber":2,"parameterNumberName":"U-component_of_CURRENTS"},"data":[0,0,0,0,0,0,0,0,0,0,0,0,0,0,0,0,0,0,0,0,0,0,0,0,0,0,0,0,0,0,0,0,0,0,0,0,0,0,0,0,0,0,0,0,0,0,0,0,0,0,0,0,0,0,0,0,0,0,0.0718,0.0718,0,0.0639,0.0638,0.0636,0.0599,0.06,0.06,0.0601,0.0694,0.0696,0.0698,0,0,0,0,0,0,0,0,0,0,0,0,0,0.0694,0.0695,0.0718,0.0718,0.0717,0.064,0.0638,0.0636,0.0599,0.06,0.0601,0.0602,0.0694,0.0696,0.0698,0,0,0,0,0,0,0,0,0,0,0,0,0,0.0661,0.0695,0.0718,0.0696,0.0694,0.064,0.0638,0.0635,0.0598,0.06,0.0601,0.0602,0.0693,0.0696,0.0698,0.0689,0,0,0.0706,0.0707,0,0,0,0,0,0,0,0,0.0663,0.0661,0.0699,0.0697,0.0695,0.0638,0.0664,0.0665,0.0598,0.0625,0.0601,0.0603,0.0696,0.0698,0.0666,0.0694,0.0698,0.0706,0.0708,0.0709,0.071,0,0,0,0,0,0,0,0.0666,0.0664,0.0678,0.0699,0.0697,0.0642,0.0639,0.0662,0.0651,0.0623,0.0622,0.0627,0.0695,0.0663,0.0669,0.0699,0.0706,0.0708,0.071,0.0711,0.0779,0.078,0,0,0,0,0,0,0.0699,0.0667,0.0681,0.0677,0.0692,0.0643,0.0639,0.0648,0.0647,0.0649,0.0626,0.0626,0.0658,0.0666,0.0672,0.0753,0.0709,0.0711,0.0713,0.0779,0.078,0.078,0,0,0,0,0,0,0.0699,0.0701,0.0684,0.0676,0.0671,0.0644,0.0653,0.0646,0.0644,0.0649,0.0653,0.0636,0.066,0.0669,0.0705,0.0753,0.0712,0.0715,0.0779,0.0779,0.078,0.0857,0,0,0,0,0,0,0.0698,0.0701,0.0723,0.0679,0.0674,0.0664,0.0652,0.0644,0.0647,0.0646,0.0659,0.0666,0.0661,0.0701,0.0707,0.0756,0.0717,0.0779,0.0779,0.078,0.0854,0.086,0.0865,0,0,0,0,0,0.0698,0.0716,0.0725,0.0727,0.0704,0.0665,0.0655,0.0633,0.0647,0.0637,0.0651,0.0667,0.0709,0.0703,0.071,0.0762,0.0778,0.0779,0.078,0.0852,0.0859,0.0865,0,0,0,0,0,0,0.0706,0.0714,0.0722,0.0741,0.0716,0.0662,0.066,0.0652,0.0647,0.0675,0.0671,0.0678,0.0727,0.0723,0.0717,0.0777,0.0747,0.0749,0.0799,0.0806,0.0811,0.0815,0.0719,0,0,0,0,0,0.0725,0.0748,0.073,0.0745,0.0741,0.0709,0.0698,0.0694,0.0683,0.0682,0.0692,0.071,0.0726,0.0752,0.0758,0.0798,0.0802,0.0832,0.0838,0.0843,0.0847,0.0886,0.0896,0.0782,0.0782,0.0782,0,0,0.0723,0.0741,0.0747,0.075,0.0731,0.0724,0.0703,0.0705,0.0726,0.07,0.0739,0.0735,0.0737,0.0772,0.0796,0.0786,0.0876,0.0843,0.0848,0.085,0.0888,0.0899,0.091,0.0782,0.0782,0.0782,0,0,0.0729,0.0757,0.0774,0.0766,0.0776,0.0758,0.0772,0.0749,0.077,0.0792,0.0787,0.0795,0.0827,0.0822,0.0828,0.0866,0.0899,0.0893,0.094,0.0978,0.0989,0.0998,0.102,0.1031,0.0903,0.0903,0.0904,0,0.0732,0.0757,0.0765,0.0779,0.0779,0.0782,0.0785,0.0803,0.0802,0.0821,0.0823,0.0838,0.0839,0.0875,0.0887,0.0882,0.0917,0.0922,0.0989,0.0998,0.1007,0.1027,0.1038,0.0907,0.0907,0.0906,0.0906,0,0.0734,0.0766,0.0773,0.0801,0.0798,0.0805,0.0832,0.085,0.088,0.0892,0.094,0.0925,0.093,0.0938,0.0931,0.0995,0.1005,0.0991,0.0981,0.1023,0.1041,0.1051,0.0913,0.0911,0.091,0.0909,0,0,0.07,0.0764,0.0766,0.079,0.082,0.0811,0.0862,0.0885,0.0928,0.0955,0.099,0.1008,0.1016,0.102,0.1023,0.1054,0.1132,0.1069,0.1069,0.1105,0.1239,0.111,0.1108,0.1163,0.1165,0.1167,0.1229,0,0.0696,0.0733,0.0765,0.0791,0.0804,0.083,0.0865,0.0905,0.0951,0.0994,0.1022,0.1064,0.1057,0.1074,0.111,0.1123,0.1164,0.1117,0.1178,0.1179,0.1072,0.1116,0.1173,0.1237,0.1239,0.1241,0.1242,0,0.0677,0.0713,0.0739,0.0801,0.0807,0.0829,0.0874,0.0921,0.0995,0.1033,0.1086,0.1123,0.1176,0.116,0.1235,0.1226,0.1248,0.1251,0.1254,0.1112,0.1068,0.1181,0.1259,0.1258,0.1257,0.1256,0.1254,0,0.063,0.0693,0.072,0.0734,0.0795,0.082,0.0861,0.0928,0.0974,0.1083,0.1111,0.1194,0.1228,0.1285,0.1308,0.1302,0.1379,0.1356,0.1257,0.1248,0.1313,0.1303,0.1414,0.1414,0.1414,0.1413,0.1413,0,0.0604,0.0625,0.071,0.072,0.0753,0.0818,0.0874,0.0918,0.1,0.1046,0.1153,0.1183,0.1272,0.1323,0.1346,0.133,0.1416,0.127,0.1258,0.1342,0.1333,0.1321,0.1309,0.1416,0.1415,0.1415,0.1414,0,0.0536,0.0592,0.0625,0.0705,0.0732,0.076,0.0857,0.09,0.0997,0.1054,0.1093,0.1195,0.1262,0.1326,0.1393,0.1347,0.1356,0.1331,0.1421,0.1412,0.1192,0.1184,0.1223,0.1219,0.1215,0.1213,0.121,0,0.0503,0.0515,0.0591,0.0616,0.0659,0.0727,0.0765,0.0871,0.0914,0.1036,0.1042,0.1149,0.1207,0.1211,0.1281,0.1319,0.1297,0.1294,0.1234,0.119,0.1175,0.1172,0.1168,0.1205,0.1204,0.1203,0.1202,0,0.0431,0.0461,0.0489,0.054,0.0589,0.0636,0.0712,0.0727,0.0845,0.0934,0.0971,0.1017,0.1075,0.1128,0.1172,0.1191,0.129,0.1259,0.1265,0.1208,0.1169,0.1157,0.1157,0.1191,0.1192,0.1194,0.1194,0,0.037,0.0368,0.0415,0.0457,0.0507,0.0537,0.0593,0.065,0.0698,0.0831,0.0833,0.0955,0.1048,0.1061,0.1098,0.1111,0.1081,0.1032,0.1049,0.1063,0.0979,0.0903,0.084,0,0,0,0,0,0.0311,0.031,0.0336,0.0378,0.0428,0.0461,0.0542,0.0608,0.0712,0.0701,0.0766,0.0819,0.0873,0.0933,0.0915,0.1018,0.1086,0.0988,0.1037,0.1126,0.114,0.1054,0,0,0,0,0,0,0.027,0.0284,0.0303,0.0305,0.0324,0.037,0.0421,0.0499,0.0505,0.0615,0.0658,0.0732,0.0812,0.0872,0.0887,0.0903,0.0906,0.1056,0.1052,0.1119,0.1131,0.1142,0.1058,0,0,0,0,0]},{"header":{"parameterUnit":"m.s-1","parameterCategory":2,"la1":30.2991,"la2":30.254,"lo1":-89.0895,"lo2":-89.0444,"dy":0.0017,"dx":0.0017,"nx":28,"ny":28,"refTime":"2024-05-19T09:00:00:Z","depth":"4","parameterNumber":3,"parameterNumberName":"V-component_of_CURRENTS"},"data":[0,0,0,0,0,0,0,0,0,0,0,0,0,0,0,0,0,0,0,0,0,0,0,0,0,0,0,0,0,0,0,0,0,0,0,0,0,0,0,0,0,0,0,0,0,0,0,0,0,0,0,0,0,0,0,0,0,0,0.0183,0.0183,0,0.0135,0.0135,0.0134,0.0118,0.0118,0.0119,0.0119,0.0119,0.0119,0.0119,0,0,0,0,0,0,0,0,0,0,0,0,0,0.0198,0.0198,0.0183,0.0183,0.0182,0.0136,0.0135,0.0134,0.0118,0.0118,0.0119,0.0119,0.0119,0.0119,0.0119,0,0,0,0,0,0,0,0,0,0,0,0,0,0.0174,0.0198,0.0183,0.0169,0.0168,0.0136,0.0135,0.0134,0.0118,0.0118,0.0119,0.0119,0.0119,0.0119,0.0119,0.0107,0,0,0.0117,0.0117,0,0,0,0,0,0,0,0,0.0175,0.0173,0.0172,0.017,0.0169,0.0134,0.014,0.0128,0.0118,0.0135,0.0119,0.0119,0.0129,0.0128,0.0115,0.0107,0.0107,0.0117,0.0117,0.0117,0.0117,0,0,0,0,0,0,0,0.0177,0.0175,0.0163,0.0171,0.0169,0.0144,0.0142,0.0137,0.013,0.0134,0.0133,0.013,0.0128,0.0116,0.0115,0.0107,0.0117,0.0117,0.0117,0.0116,0.0106,0.0106,0,0,0,0,0,0,0.0188,0.0177,0.0165,0.0162,0.0175,0.0144,0.0141,0.0144,0.0129,0.0127,0.0129,0.0129,0.0116,0.0116,0.0116,0.0127,0.0117,0.0116,0.0116,0.0106,0.0106,0.0106,0,0,0,0,0,0,0.0189,0.0188,0.0166,0.0169,0.0164,0.0144,0.0146,0.0143,0.0139,0.0125,0.0124,0.0131,0.0117,0.0116,0.012,0.0126,0.0116,0.0116,0.0106,0.0106,0.0106,0.0133,0,0,0,0,0,0,0.019,0.0189,0.0199,0.017,0.0165,0.0156,0.0146,0.0141,0.0136,0.0135,0.0126,0.0126,0.0117,0.0121,0.012,0.0125,0.0115,0.0106,0.0106,0.0106,0.0132,0.0134,0.0136,0,0,0,0,0,0.019,0.0204,0.02,0.0198,0.0178,0.0156,0.0151,0.0137,0.0136,0.0135,0.0131,0.0126,0.012,0.0121,0.012,0.0125,0.0106,0.0106,0.0106,0.0132,0.0134,0.0136,0,0,0,0,0,0,0.0213,0.0203,0.0198,0.0207,0.0187,0.0154,0.0156,0.0142,0.0135,0.0143,0.0129,0.0128,0.013,0.0124,0.0125,0.012,0.0111,0.0111,0.0131,0.0133,0.0135,0.0146,0.0115,0,0,0,0,0,0.0224,0.0235,0.021,0.0218,0.0212,0.0185,0.0176,0.0165,0.0152,0.0149,0.0142,0.0135,0.0126,0.0129,0.0119,0.0122,0.0112,0.0122,0.0124,0.0126,0.0133,0.0119,0.0121,0.0106,0.0106,0.0106,0,0,0.0232,0.0231,0.0235,0.0224,0.0209,0.0205,0.0181,0.0174,0.0176,0.0152,0.016,0.0141,0.0127,0.0125,0.0126,0.0125,0.0123,0.0126,0.0127,0.0134,0.0119,0.0121,0.0122,0.0106,0.0106,0.0106,0,0,0.0255,0.0255,0.0271,0.0259,0.0246,0.0228,0.0229,0.0203,0.02,0.0196,0.0179,0.0162,0.0156,0.0139,0.0131,0.0136,0.0129,0.0138,0.0161,0.0148,0.0149,0.015,0.0137,0.0136,0.0143,0.0143,0.0143,0,0.0265,0.0283,0.0268,0.0277,0.0277,0.0242,0.0252,0.0238,0.0217,0.0219,0.0208,0.0177,0.0159,0.0151,0.015,0.014,0.0137,0.0156,0.0151,0.0151,0.0152,0.0138,0.0137,0.0144,0.0144,0.0144,0.0144,0,0.029,0.0309,0.0316,0.032,0.0316,0.0316,0.0297,0.029,0.0279,0.0266,0.0254,0.0216,0.0201,0.0184,0.017,0.0165,0.0162,0.0151,0.0148,0.0155,0.014,0.0139,0.0146,0.0146,0.0145,0.0145,0,0,0.0285,0.0329,0.0328,0.0346,0.0342,0.0335,0.0343,0.0336,0.0346,0.0312,0.0319,0.0275,0.0254,0.0243,0.0212,0.0191,0.0182,0.0182,0.0181,0.0174,0.0161,0.0156,0.0154,0.0178,0.0178,0.0178,0.0148,0,0.0304,0.0347,0.0361,0.0388,0.0401,0.0389,0.0399,0.0391,0.0383,0.038,0.0331,0.0327,0.028,0.0274,0.0244,0.0197,0.0181,0.0191,0.0151,0.015,0.0149,0.0153,0.0178,0.0147,0.0147,0.0146,0.0146,0,0.0303,0.0341,0.0386,0.0431,0.0436,0.045,0.0461,0.0471,0.0461,0.0457,0.0436,0.0406,0.0364,0.0326,0.025,0.0265,0.0224,0.018,0.0178,0.0165,0.0143,0.0138,0.0144,0.0144,0.0144,0.0144,0.0144,0,0.0285,0.0345,0.039,0.0401,0.0446,0.0468,0.0489,0.0495,0.0507,0.0515,0.0518,0.0471,0.0443,0.038,0.0289,0.0281,0.0207,0.0183,0.0137,0.0136,0.0137,0.0137,0.0143,0.0143,0.0144,0.0144,0.0144,0,0.0281,0.0309,0.0392,0.041,0.0457,0.049,0.0534,0.0543,0.0564,0.0581,0.0565,0.055,0.0458,0.04,0.0319,0.0226,0.0233,0.0145,0.013,0.0148,0.0149,0.0136,0.0136,0.0143,0.0143,0.0143,0.0143,0,0.0242,0.0296,0.0345,0.0424,0.0449,0.0482,0.0554,0.0585,0.0613,0.0631,0.0637,0.0604,0.0543,0.045,0.0344,0.0266,0.0178,0.0148,0.0183,0.017,0.0107,0.0108,0.0091,0.009,0.009,0.009,0.0089,0,0.023,0.0256,0.0345,0.0386,0.0429,0.0494,0.0536,0.0589,0.0622,0.0652,0.0652,0.0621,0.0587,0.0436,0.0343,0.0211,0.0184,0.0138,0.011,0.0116,0.0103,0.0105,0.0106,0.0089,0.0089,0.0089,0.0089,0,0.021,0.0242,0.0294,0.0376,0.0439,0.0504,0.0576,0.059,0.065,0.0667,0.0657,0.06,0.0537,0.0428,0.0343,0.0237,0.0163,0.0134,0.0133,0.0106,0.0114,0.0101,0.0103,0.0088,0.0088,0.0088,0.0088,0,0.0199,0.0229,0.0308,0.0378,0.0448,0.0514,0.0548,0.0599,0.0628,0.0655,0.0644,0.0599,0.0568,0.0442,0.0352,0.0266,0.0226,0.0169,0.0166,0.0166,0.0193,0.0214,0.0211,0,0,0,0,0,0.02,0.0251,0.0312,0.0407,0.047,0.0521,0.0578,0.061,0.0647,0.0635,0.0643,0.0588,0.0476,0.0432,0.0344,0.0336,0.021,0.0226,0.0143,0.0082,0.0083,0.0101,0,0,0,0,0,0,0.0212,0.0273,0.0314,0.0414,0.048,0.0564,0.06,0.0627,0.0618,0.0632,0.0574,0.0555,0.0449,0.0537,0.0344,0.0321,0.0248,0.0182,0.018,0.0081,0.0082,0.0083,0.0102,0,0,0,0,0]}]]